User: anonymous   Login
Location: Ladrillo (historical)
(32.8195°N, 117.2231°W)
Time: 14:32:43
(UTC+00:00)
Language:

Cosmos 1992 Rocket - Orbit

View from above orbital plane
View from above orbital plane
View from above satellite
View from above satellite

Ground track
Ground track

The orbit data is extracted from the following two-line orbital elements,

1 19770U 89005B   21019.79862663  .00000075  00000-0  33063-4 0  9997
2 19770  74.0452 149.9021 0006059 265.7889 246.6079 14.38860663675062
Epoch (UTC): 19 January 2021 19:10:01
Eccentricity: 0.0006059
inclination: 74.0452°
perigee height: 758 km
apogee height: 766 km
right ascension of ascending node: 149.9021°
argument of perigee: 265.7889°
revolutions per day: 14.38860663
mean anomaly at epoch: 246.6079°
orbit number at epoch: 67506

The dashed part of the orbit path shows where the satellite is in the earth's shadow,  

DLR